Weather History for KPOU - March, 2013

Change the Weather History Date:

Friday, March 29, 2013

  Actual Average Record
Temperature  
Mean Temperature 40 °F 42 °F  
Max Temperature 53 °F 53 °F 80 °F (1986)
Min Temperature 27 °F 30 °F 11 °F (1959)
Degree Days  
Heating Degree Days 25 23  
Month to date heating degree days 823 828  
Since 1 July heating degree days 4944 5399  
Cooling Degree Days 0 0  
Month to date cooling degree days 0 0  
Year to date cooling degree days 0 0  
Moisture  
Dew Point 27 °F    
Average Humidity 59    
Maximum Humidity 85    
Minimum Humidity 32    
Precipitation  
Precipitation 0.00 in 0.11 in 1.27 in (2014)
Month to date precipitation 1.31 3.33  
Year to date precipitation 4.97 9.07  
Sea Level Pressure  
Sea Level Pressure 30.09 in    
Wind  
Wind Speed 4 mph (WNW)    
Max Wind Speed 16 mph    
Max Gust Speed 21 mph    
Visibility 10 miles    
Events      
T = Trace of Precipitation, MM = Missing Value Source: NWS Daily Summary

Daily Weather History Graph

Daily Weather History Graph

Search for Another Location

Airport or City:

Trip Planner

Search our weather history database for the weather conditions in past years. The results will help you decide how hot, cold, wet, or windy it might be!

Date:

Astronomy

Mar. 29, 2013 Rise Set
Actual Time 6:43 AM EDT 7:17 PM EDT
Civil Twilight 6:15 AM EDT 7:45 PM EDT
Nautical Twilight 5:42 AM EDT 8:18 PM EDT
Astronomical Twilight 5:08 AM EDT 8:52 PM EDT
Moon 10:17 PM EDT (3/29) 7:47 AM EDT (3/29)
Length of Visible Light 13h 30m
Length of Day
12h 34m
Waning Gibbous, 93% of the Moon is Illuminated
Mar 29
Waning Gibbous
Apr 3
Last Quarter
Apr 10
New
Apr 18
First Quarter
Apr 25
Full

Hourly Weather History & Observations

Time (EDT) Temp. Windchill Dew Point Humidity Pressure Visibility Wind Dir Wind Speed Gust Speed Precip Events Conditions
12:53 AM 43.0 °F 40.3 °F 28.0 °F 56% 30.10 in 10.0 mi NW 4.6 mph - N/A   Mostly Cloudy
1:53 AM 35.1 °F - 28.0 °F 76% 30.11 in 10.0 mi Calm Calm - N/A   Clear
2:53 AM 34.0 °F - 27.0 °F 75% 30.11 in 10.0 mi Calm Calm - N/A   Clear
3:53 AM 32.0 °F - 27.0 °F 82% 30.10 in 10.0 mi Calm Calm - N/A   Partly Cloudy
4:53 AM 30.0 °F - 26.1 °F 85% 30.11 in 10.0 mi Calm Calm - N/A   Clear
5:53 AM 28.9 °F - 25.0 °F 85% 30.11 in 10.0 mi Calm Calm - N/A   Clear
6:53 AM 28.0 °F - 24.1 °F 85% 30.12 in 10.0 mi Calm Calm - N/A   Clear
7:53 AM 30.9 °F - 27.0 °F 85% 30.13 in 10.0 mi Calm Calm - N/A   Clear
8:53 AM 39.0 °F - 30.0 °F 70% 30.13 in 10.0 mi Calm Calm - N/A   Clear
9:53 AM 45.0 °F 43.5 °F 28.9 °F 53% 30.12 in 10.0 mi Variable 3.5 mph - N/A   Clear
10:53 AM 50.0 °F - 27.0 °F 41% 30.11 in 10.0 mi Variable 3.5 mph - N/A   Clear
11:53 AM 52.0 °F - 27.0 °F 38% 30.09 in 10.0 mi WNW 8.1 mph - N/A   Partly Cloudy
12:53 PM 51.1 °F - 26.1 °F 38% 30.07 in 10.0 mi NW 5.8 mph - N/A   Mostly Cloudy
1:53 PM 53.1 °F - 25.0 °F 34% 30.05 in 10.0 mi WSW 6.9 mph - N/A   Overcast
2:53 PM 52.0 °F - 25.0 °F 35% 30.04 in 10.0 mi WNW 3.5 mph - N/A   Overcast
3:53 PM 51.1 °F - 25.0 °F 36% 30.03 in 10.0 mi NW 11.5 mph - N/A   Overcast
4:53 PM 50.0 °F - 26.1 °F 39% 30.05 in 10.0 mi NW 10.4 mph - N/A   Overcast
5:53 PM 48.0 °F - 27.0 °F 44% 30.06 in 10.0 mi NW 9.2 mph - N/A   Overcast
6:53 PM 46.9 °F - 27.0 °F 46% 30.07 in 10.0 mi WNW 8.1 mph - N/A   Overcast
7:53 PM 46.0 °F 41.4 °F 26.1 °F 46% 30.08 in 10.0 mi WNW 9.2 mph - N/A   Overcast
8:53 PM 45.0 °F 41.8 °F 27.0 °F 49% 30.09 in 10.0 mi WNW 5.8 mph - N/A   Overcast
9:53 PM 44.1 °F 40.1 °F 28.0 °F 53% 30.10 in 10.0 mi WNW 6.9 mph - N/A   Overcast
10:53 PM 43.0 °F 40.3 °F 27.0 °F 53% 30.11 in 10.0 mi NW 4.6 mph - N/A   Partly Cloudy
11:53 PM 37.9 °F 33.5 °F 27.0 °F 65% 30.11 in 10.0 mi West 5.8 mph - N/A   Partly Cloudy